Regional Weather Roundup
Issued by NWS Raleigh/Durham, NC

Home | Current Version | Previous Version | Text Only | Print | Product List | Glossary On
Versions: 1 2 3 4 5 6 7 8 9 10 11 12 13 14 15 16 17 18 19 20 21 22 23 24 25 26 27 28 29 30 31 32 33 34 35 36 37 38 39 40 41 42 43 44 45 46 47 48 49 50
000
ASUS42 KRAH 242310
RWRRAH
NORTH CAROLINA WEATHER ROUNDUP
NATIONAL WEATHER SERVICE RALEIGH NC
700 PM EDT SAT SEP 24 2016

NOTE: "FAIR" INDICATES FEW OR NO CLOUDS BELOW 12,000 FEET WITH NO
SIGNIFICANT WEATHER AND/OR OBSTRUCTIONS TO VISIBILITY.

NCZ001-053-055-056-065-067-250000-
WESTERN NORTH CAROLINA

CITY           SKY/WX    TMP DP  RH WIND       PRES   REMARKS
ASHEVILLE      MOCLDY    83  57  41 NW5       30.12R
JEFFERSON      CLEAR     76  58  52 NW3       30.19S
MORGANTON      CLEAR     83  67  58 CALM      30.10R
HICKORY        PTCLDY    88  58  36 W5        30.05R
RUTHERFORDTON  CLEAR     90  58  33 CALM      30.05S
MOUNT AIRY     CLEAR     86  66  51 CALM      30.08R
BOONE          CLEAR     77  54  44 N3        30.20S
$$

NCZ021-022-025-041-071-084-088-250000-
CENTRAL NORTH CAROLINA

CITY           SKY/WX    TMP DP  RH WIND       PRES   REMARKS
CHARLOTTE      PTCLDY    89  59  36 SE3       30.03S
GREENSBORO     PTCLDY    86  62  44 CALM      30.04R
WINSTON-SALEM  CLEAR     85  63  47 CALM      30.05S
RALEIGH-DURHAM PTCLDY    83  68  60 CALM      30.02S
FORT BRAGG     CLEAR     83  69  61 CALM      30.01S
FAYETTEVILLE   CLEAR     84  69  60 E3        30.01S
BURLINGTON     CLEAR     82  67  60 CALM      30.02S
LAURINBURG     CLEAR     84  70  62 E3        30.02S
$$

NCZ011-015-027-028-043-044-047-080-103-250000-
NORTHEASTERN NORTH CAROLINA

CITY           SKY/WX    TMP DP  RH WIND       PRES   REMARKS
ROCKY MT-WILSO PTCLDY    78  74  87 CALM      30.01S
GREENVILLE     CLEAR     79  75  89 CALM      30.03S
WASHINGTON     CLEAR     79  72  79 CALM      30.01S
ELIZABETH CITY MOCLDY    75  70  84 NE13      30.05R
MANTEO         CLOUDY    75  72  92 NE12      30.04R
CAPE HATTERAS  CLEAR     75  67  76 CALM      30.02R
$$

NCZ078-087-090-091-093-098-101-250000-
SOUTHEASTERN NORTH CAROLINA

CITY           SKY/WX    TMP DP  RH WIND       PRES   REMARKS
LUMBERTON      CLEAR     83  70  64 CALM      30.01R
GOLDSBORO      CLEAR     82  74  76 CALM      30.00S
KINSTON        CLEAR     79  72  78 CALM      30.03R
KENANSVILLE    CLEAR     79  73  83 CALM      30.02S
NEW BERN       CLEAR     79  71  76 CALM      30.03R
CHERRY POINT   CLEAR     80  72  76 SE3       30.02S
BEAUFORT       CLEAR     80  65  59 CALM      30.01S
JACKSONVILLE   CLEAR     83  68  60 NE3       30.01R
WILMINGTON     CLEAR     80  72  76 E6        30.01R
$$




USA.gov is the U.S. government's official web portal to all federal, state and local government web resources and services.